Terminal Aerodrome Forecast
Issued by NWS Charleston, SC

Home | Current Version | Previous Version | Text Only | Print | Product List | Glossary On
Versions: 1 2 3 4 5 6 7 8 9 10 11 12 13 14 15 16 17 18 19 20 21 22
000
FTUS42 KCHS 030131 AAB
TAFCHS
TAF AMD
KCHS 030131Z 0302/0324 21008KT 5SM TSRA FEW010 SCT040CB BKN070
     FM030300 24007KT P6SM FEW040 BKN150
     FM031600 25012G18KT P6SM FEW050 BKN080
     FM031900 22016G22KT P6SM VCTS BKN035CB=

USA.gov is the U.S. government's official web portal to all federal, state and local government web resources and services.